Location: Berville
(49.1893°N, 2.0748°E)
Time: 17:48:35
(UTC+00:00)

Cosmos 1980 - Pass Details

Date: 08 February 2023
Orbit: 838 x 847 km, 71.0° (Epoch: 29 March)

Event Time Altitude Azimuth Distance (km) Brightness Sun altitude
Rises 18:51:01 0° 179° (S) 3,376 6.8 -18.6°
Reaches altitude 10° 18:53:37 10° 171° (S) 2,446 6.0 -19.0°
Enters shadow 18:58:33 35° 109° (ESE) 1,319 4.2 -19.8°
